{"data":{"norad_id":59456,"intl_designator":"2024-068B","name":"STARLINK-31622","alt_names":[],"object_type":"PAYLOAD","status":"ACTIVE","operator":null,"country":"US","launch_date":"2024-04-10","launch_site_code":"AFETR","launch_vehicle":null,"mission":null,"orbit_class":"UNKNOWN","rcs_meters":null,"size_class":null,"mass_kg":null,"dimensions":null,"purposes":["comms"],"wikipedia_slug":null,"has_3d_model":false,"image_url":null,"decayed_at":null,"tle_current":{"epoch":"2026-09-21T14:37:45.953760Z","epoch_age_seconds":69731,"freshness":"FRESH","line1":"1 59456U 24068B   26264.60955965  .00000316  00000+0  20987-4 0  9993","line2":"2 59456  43.0039   8.2805 0001057 266.9458  93.1273 15.27581963138482","mean_motion":15.27581963,"eccentricity":0.0001057,"inclination_deg":43.0039,"raan_deg":8.2805,"arg_perigee_deg":266.9458,"mean_anomaly_deg":93.1273,"bstar":2.0987e-5,"rev_number":13848,"period_min":94.266627577351,"perigee_km":482.31799136871,"apogee_km":483.76844486682,"semimajor_km":6861.1802181178,"source":"CELESTRAK","updated_at":"2026-09-22T09:00:48.943263Z"}}}